HULIANWANG DIGUI-112

Last updated on Mon Dec 15 2025 00:02:13 GMT+0000 (Coordinated Universal Time)

1 66922U 25285H 25348.33415936 .00000091 00000+0 14746-3 0 9997 2 66922 50.0087 110.7289 0006958 306.6717 53.3548 14.06001185 1132
UTC large
Height (km)
Speed (km/s)
/
Latitude / Longitude
Inclination (degrees)
Orbital Period (minutes)
Azimuth
Elevation
Range (km)
Doppler Factor

Next 0 passes for location: London (51.5072 / 0.1276)

Sorry there are no passes over London.